Miscellaneous Local Product
Issued by NWS North Platte, NE

Home | Current Version | Previous Version | Text Only | Print | Product List | Glossary On
Versions: 1 2 3 4 5 6 7 8 9 10 11 12 13 14 15 16 17 18 19 20 21 22 23 24 25 26 27 28 29 30 31 32 33 34 35 36 37 38 39 40 41 42 43 44 45 46 47 48 49 50
000
AXUS43 KLBF 262210
MISLBF


WESTERN AND NORTH CENTRAL NEBRASKA HOURLY WEATHER ROUNDUP
NATIONAL WEATHER SERVICE NORTH PLATTE NE
500 PM CDT THU MAR 26 2015

***STATIONS NOT REPORTING VARIABLES SUCH AS SKY/WEATHER OR
PRESSURE ARE PROVIDED BY THE NEBRASKA DEPARTMENT OF
ROADS...RAWS...AND APRS NETWORKS...AND ARE NOT UNDER
NATIONAL WEATHER SERVICE QUALITY CONTROL***

...OBSERVATIONS IN AND NEAR THE EASTERN PANHANDLE OF NEBRASKA...

CITY           SKY/WX    TMP DP  RH WIND       PRES   REMARKS
PINE RIDGE     CLOUDY    48  26  42 N17       30.10R
CHADRON        CLOUDY    50  34  54 N13       30.10R
ALLIANCE       PTSUNNY   53  32  44 NW24G32   30.07S
SIDNEY         PTSUNNY   54  29  38 N30G40    30.11R
WHITECLAY        N/A     46  25  44 NE15        N/A
CRESCENT LAKE    N/A     51  27  39 NW16G35     N/A
BIG SPRINGS      N/A     56  34  43 NW13        N/A
$$

...OBSERVATIONS IN NORTH CENTRAL NEBRASKA...

CITY           SKY/WX    TMP DP  RH WIND       PRES   REMARKS
VALENTINE      CLOUDY    40  29  64 NE14      30.14R WCI  32
THEDFORD       CLOUDY    53  32  45 N22G32    30.06R
AINSWORTH      CLOUDY    36  31  81 NE17      30.13R WCI  26
O`NEILL        LGT SNOW  33  33  98 NE8       30.14R WCI  26
ORD            CLOUDY    51  26  37 NE7       30.03R
BROKEN BOW     LGT RAIN  51  35  54 N17G30    30.01R
BROWNLEE         N/A     45  31  58 N22         N/A
SPRINGVIEW       N/A     35  30  82 NE5         N/A  WCI  31
BREWSTER         N/A     48  32  54 NE25        N/A
ROSE             N/A     37  33  87 NE15        N/A  WCI  28
NEWPORT          N/A     35  34  94 NE10        N/A  WCI  27
SARGENT          N/A     51  31  45 NW5G15      N/A
COMSTOCK         N/A     56  33  42 W9          N/A
EWING            N/A     33  30  90 NE3         N/A
$$

...OBSERVATIONS IN SOUTHWEST NEBRASKA AND FAR NORTHEAST COLORADO...

CITY           SKY/WX    TMP DP  RH WIND       PRES   REMARKS
WRAY           CLOUDY    58  25  27 N21G26    30.09S
HOLYOKE        FAIR      59  28  31 NW25G33   30.09S
IMPERIAL         N/A     58  29  33 NW29G37   30.07R
OGALLALA       CLOUDY    57  29  34 NW24G35   30.07S
NORTH PLATTE   CLOUDY    57  26  30 NW22G29   30.03S
MCCOOK         CLOUDY    62  24  23 NW26G37   30.01F
LEXINGTON      CLOUDY    57  29  33 N24G32    30.01R
PAXTON           N/A     56  28  34 NW16        N/A
SUTHERLAND       N/A     52  20  28 S20         N/A
BRADY            N/A     55  27  34 SW5G14      N/A
GOTHENBURG       N/A     56  24  28 NW20        N/A
CALLAWAY         N/A     53  30  42 NW20        N/A
$$

...NORTH PLATTE AREA...

CITY           SKY/WX    TMP DP  RH WIND       PRES   REMARKS
AIRPORT        CLOUDY    57  26  30 NW22G29   30.03S
DOWNTOWN         N/A     56  27  33 N9G20       N/A
$$

...SOME WEATHER OBSERVATIONS FROM AROUND THE REGION...

CITY           SKY/WX    TMP DP  RH WIND       PRES   REMARKS
DENVER         PTSUNNY   58  21  24 VRB3      30.12F
LARAMIE        CLOUDY    49  21  33 NW17G29   30.16F
CHEYENNE       PTSUNNY   52  22  30 NW24G38   30.11F
SCOTTSBLUFF    CLOUDY    54  33  45 N24G35    30.11S
RAPID CITY     CLOUDY    48  29  47 N13       30.11S
PIERRE         CLOUDY    37  29  72 E6        30.19R WCI  32
WINNER         CLOUDY    36  29  75 NE10      30.18R WCI  28
SIOUX FALLS    CLOUDY    39  22  50 N14       30.14S WCI  31
OMAHA          CLOUDY    44  26  49 N15G21    30.11R
GRAND ISLAND   PTSUNNY   48  29  47 E12       30.03F
KANSAS CITY    MOSUNNY   49  28  44 NW7       30.09F
WICHITA        MOSUNNY   57  30  35 SW6       30.09F
HAYS           CLOUDY    64  30  27 W25G31    29.99F
LIBERAL        PTSUNNY   64  28  25 NW17G25   30.10F
GOODLAND       CLOUDY    59  25  27 N25G33    30.07S
$$



USA.gov is the U.S. government's official web portal to all federal, state and local government web resources and services.